Probability
0 0 0 0 0 0 0 0 0 0 0 0 0 0 0 0 0 0 0 0 0 0 0 0 0 0 0 0 0 0 0 0 0 0 0 0 0 0 0 0 0 0 0 0
0 0 0 0 0 0 0 0 0 0 0 0 0 0 0 0 0 0 0 0 0 0 0 0 0 0 0 0 0 0 0 0 0 0 0 0 0 0 0 0 0 0 0 0
0 0 0 0 0 0 0 0 0 0 0 0 0 0 0 0 0 0 0 0 0 0 0 0 0 0 0 0 0 0 0 0 0 0 0 0 0 0 0 0 0 0 0 0
0 0 0 0 0 0 0 0 0 0 0 0 0 0 0 0 0 0 0 0 0 0 0 0 0 0 0 0 0 0 0 0 0 0 0 0 0 0 0 0 0 0 0 0
0 0 0 0 0 0 0 0 0 0 0 0 0 0 0 0 0 0 0 0 0 0 0 0 0 0 0 0 0 0 0 0 0 0 0 0 0 0 0 0 0 0 0 0
0 0 0 0 0 0 0 0 0 0 0 0 0 0 0 0 0 0 0 0 0 0 0 0 0 0 0 0 0 0 0 0 0 0 0 0 0 0 0 0 0 0 0 0
0 0 0 0 0 0 0 0 0 0 0 0 0 0 0 0 0 0 0 0 0 0 0 0 0 0 0 0 0 0 0 0 0 0 0 0 0 0 0 0 0 0 0 0
0 0 0 0 0 0 0 0 0 0 0 0 0 0 0 0 0 0 0 0 0 0 0 0 0 0 0 0 0 0 0 0 0 0 0 0 0 0 0 0 0 0 0 0
0 0 0 0 0 0 0 0 0 0 0 0 0 0 0 0 0 0 0 0 0 0 0 0 0 0 0 0 0 0 0 0 0 0 0 0 0 0 0 0 0 0 0 0
0 0 0 0 0 0 0 0 0 0 0 0 0 0 0 0 0 0 0 0 0 0 0 0 0 0 0 0 0 0 0 0 0 0 0 0 0 0 0 0 0 0 0 0
0 0 0 0 0 0 0 0 0 0 0 0 0 0 0 0 0 0 0 0 0 0 0 0 0 0 0 0 0 0 0 0 0 0 0 0 0 0 0 0 0 0 0 0
0 0 0 0 0 0 0 0 0 0 0 0 0 0 0 0 0 0 0 0 0 0 0 0 0 0 0 0 0 0 0 0 0 0 0 0 0 0 0 0 0 0 0 0
0 0 0 0 0 0 0 0 0 0 0 0 0 0 0 0 0 0 0 0 0 0 0 0 0 0 0 0 0 0 0 0 0 0 0 0 0 0 0 0 0 0 0 0
0 0 0 0 0 0 0 0 0 0 0 0 0 0 0 0 0 0 0 0 0 0 0 0 0 0 0 0 0 0 0 0 0 0 0 0 0 0 0 0 0 0 0 0
0 0 0 0 0 0 0 0 0 0 0 0 0 0 0 0 0 0 0 0 0 0 0 0 0 0 0 0 0 0 0 0 0 0 0 0 0 0 0 0 0 0 0 0
0 0 0 0 0 0 0 0 0 0 0 0 0 0 0 0 0 0 0 0 0 0 0 0 0 0 0 0 0 0 0 0 0 0 0 0 0 0 0 0 0 0 0 0
0 0 0 0 0 0 0 0 0 0 0 0 0 0 0 0 0 0 0 0 0 0 0 0 0 0 0 0 0 0 0 0 0 0 0 0 0 0 0 0 0 0 0 0
0 0 0 0 0 0 0 0 0 0 0 0 0 0 0 0 0 0 0 0 0 0 0 0 0 0 0 0 0 0 0 0 0 0 0 0 0 0 0 0 0 0 0 0
0 0 0 0 0 0 0 0 0 0 0 0 0 0 0 0 0 0 0 0 0 0 0 0 0 0 0 0 0 0 0 0 0 0 0 0 0 0 0 0 0 0 0 0
0 0 0 0 0 0 0 0 0 0 0 0 0 0 0 0 0 0 0 0 0 0 0 0 0 0 0 0 0 0 0 0 0 0 0 0 0 0 0 0 0 0 0 0
0 0 0 0 0 0 0 0 0 0 0 0 0 0 0 0 0 0 0 0 0 0 0 0 0 0 0 0 0 0 0 0 0 0 0 0 0 0 0 0 0 0 0 0
0 0 0 0 0 0 0 0 0 0 0 0 0 0 0 0 0 0 0 0 0 0 0 0 0 0 0 0 0 0 0 0 0 0 0 0 0 0 0 0 0 0 0 0
0 0 0 0 0 0 0 0 0 0 0 0 0 0 0 0 0 0 0 0 0 0 0 0 0 0 0 0 0 0 0 0 0 0 0 0 0 0 0 0 0 0 0 0
0 0 0 0 0 0 0 0 0 0 0 0 0 0 0 0 0 0 0 0 0 0 0 0 0 0 0 0 0 0 0 0 0 0 0 0 0 0 0 0 0 0 0 0
0 0 0 0 0 0 0 0 0 0 0 0 0 0 0 0 0 0 0 0 0 0 0 0 0 0 0 0 0 0 0 0 0 0 0 0 0 0 0 0 0 0 0 0
0 0 0 0 0 0 0 0 0 0 0 0 0 0 0 0 0 0 0 0 0 0 0 0 0 0 0 0 0 0 0 0 0 0 0 0 0 0 0 0 0 0 0 0
0 0 0 0 0 0 0 0 0 0 0 0 0 0 0 0 0 0 0 0 0 0 0 0 0 0 0 0 0 0 0 0 0 0 0 0 0 0 0 0 0 0 0 0
Wind_Speed
7 7 6 8 9 8 11 10 10 10 10 14 8 8 8 7 6 6 6 6 6 6 5 4 4 4 4 3 2 1 1 0 1 1 1 2 2 3 3 4 4 4 4 5
6 5 6 10 13 13 14 12 14 13 16 12 8 6 6 7 7 8 9 8 7 6 6 6 5 5 4 4 3 2 2 2 1 0 1 2 2 2 3 3 4 4 4 5
5 5 6 11 12 14 9 9 10 15 15 6 6 7 8 8 8 9 9 8 7 7 7 6 6 5 5 4 3 2 2 2 1 0 0 1 1 2 3 3 3 4 4 4
4 5 8 9 1 6 8 9 11 11 9 6 8 7 7 7 8 9 8 7 7 6 6 5 4 4 4 3 3 3 3 2 2 1 1 0 1 1 2 2 2 2 3 4
2 5 12 10 4 5 6 8 9 13 13 8 5 4 6 6 7 8 7 7 6 5 5 4 4 4 4 4 3 3 4 3 3 2 2 1 0 1 1 1 2 2 2 3
2 4 9 7 1 2 2 7 5 7 8 5 2 2 6 4 4 6 5 4 4 3 3 4 4 4 5 5 4 6 5 4 3 3 3 2 1 1 0 0 1 2 2 2
6 7 13 8 3 3 2 6 2 3 4 4 6 7 5 4 4 4 4 4 3 3 4 5 4 5 5 5 7 6 4 3 3 3 3 3 2 1 1 1 1 1 2 3
6 8 13 4 6 7 9 3 2 3 4 5 7 7 6 6 5 4 4 3 3 3 4 3 4 5 6 7 6 4 4 4 3 3 3 2 2 2 1 1 1 1 1 2
11 13 7 4 8 6 3 4 4 4 5 5 6 7 7 6 6 5 5 4 3 4 3 3 4 6 7 6 4 5 4 4 4 3 3 2 3 2 2 1 1 0 1 1
8 13 11 10 9 9 7 8 8 7 7 6 7 8 7 7 6 5 5 4 3 3 4 4 4 5 6 4 5 5 5 4 4 4 3 3 2 2 2 2 2 1 1 2
10 11 9 9 8 8 8 8 8 7 7 7 8 8 7 7 6 6 5 4 4 5 5 5 4 5 5 5 5 6 5 5 4 4 4 3 3 3 3 3 4 3 2 2
12 9 7 8 5 5 7 8 8 7 7 6 7 8 7 7 6 5 5 4 4 5 5 5 4 4 4 5 6 6 5 5 4 3 3 3 3 1 3 3 4 4 3 2
13 10 9 11 11 9 9 9 8 8 9 8 7 7 7 6 5 4 4 5 6 6 6 5 4 5 4 5 6 6 6 5 4 4 4 4 3 3 2 2 2 2 3 3
11 9 12 11 11 10 9 9 7 7 7 7 6 5 5 5 5 5 6 6 5 5 4 4 4 5 5 5 6 6 5 6 5 4 4 4 4 3 3 2 1 2 2 4
11 11 13 12 10 9 7 6 6 7 7 6 6 6 6 6 7 7 6 4 3 4 4 4 5 5 4 5 6 6 5 4 4 4 4 3 3 3 3 3 2 2 1 2
8 8 10 11 12 11 8 8 8 9 7 7 6 7 6 6 6 5 4 4 4 6 6 5 6 5 5 6 6 5 4 7 6 4 4 3 3 3 3 3 2 2 2 2
9 10 8 9 10 9 8 9 9 8 7 7 8 7 5 4 4 5 5 5 5 5 5 6 6 4 5 6 6 4 3 5 7 4 4 4 4 3 3 3 3 3 2 3
10 10 9 9 9 9 9 8 7 8 8 7 6 5 5 5 6 6 4 3 3 3 4 5 4 4 5 6 5 4 4 4 4 4 4 4 3 3 3 3 3 3 2 2
7 8 8 8 8 7 7 8 7 7 6 5 5 6 6 6 6 4 3 3 4 5 4 4 7 5 5 6 6 4 4 4 4 3 3 5 4 3 3 3 3 3 2 2
6 6 6 7 6 5 6 6 6 5 5 4 5 5 5 6 5 4 4 5 6 5 4 5 5 5 5 6 7 4 5 5 4 4 4 3 3 3 3 3 3 3 3 2
6 6 6 6 6 6 6 5 5 5 5 4 5 6 6 5 4 4 4 5 5 4 5 7 5 4 5 6 7 4 4 4 4 4 4 4 4 3 3 3 3 3 3 2
6 6 6 5 5 6 5 4 4 5 5 5 5 5 5 5 4 5 6 6 5 7 5 4 4 7 8 8 4 5 4 4 4 4 4 4 4 3 3 3 3 3 3 2
6 6 6 6 6 6 6 5 5 5 6 6 6 6 6 6 4 5 6 4 4 8 5 4 7 11 12 6 5 5 5 5 4 4 4 4 4 4 3 4 3 3 3 3
7 7 7 6 5 5 7 7 5 5 6 6 6 7 6 4 4 5 5 5 8 8 5 7 12 12 11 5 5 5 5 5 4 4 4 3 3 3 3 3 3 3 3 3
8 7 7 6 6 6 7 6 6 6 6 5 6 6 5 5 5 4 4 5 8 8 4 8 12 12 7 5 5 5 5 5 5 4 4 4 4 3 3 3 3 3 3 3
8 7 7 7 7 6 5 5 5 5 5 5 5 4 4 4 5 4 3 4 6 7 5 4 5 7 5 5 5 5 5 5 5 5 4 4 4 4 4 4 4 4 3 3
8 7 6 6 6 6 6 6 6 7 6 6 6 4 4 4 4 4 4 4 4 4 4 4 4 4 5 5 5 5 5 4 4 4 4 4 4 4 4 5 4 3 3 3
Wind_Direction
255 258 248 243 236 211 210 213 222 242 246 261 258 251 254 254 255 257 258 253 243 238 238 237 239 239 233 234 228 206 182 221 287 320 336 352 8 11 13 19 19 12 13 11
281 264 257 260 246 229 229 229 240 258 269 260 257 249 253 253 249 251 252 250 246 240 234 232 229 228 227 229 221 192 193 222 252 317 5 9 9 14 20 21 18 20 17 11
283 310 318 270 236 211 211 211 206 234 247 261 264 256 249 246 242 243 248 247 241 234 228 229 224 216 217 220 202 187 204 216 215 200 14 356 11 27 22 14 18 20 14 13
293 337 264 249 233 191 215 238 220 237 254 249 246 259 256 241 236 243 244 242 239 232 228 224 212 207 203 191 185 190 204 215 206 188 208 336 31 21 8 11 18 14 10 8
270 285 280 290 259 188 201 267 226 231 252 261 273 306 286 246 225 232 236 235 234 226 219 210 206 195 180 189 190 196 209 214 208 192 189 175 100 351 360 21 15 7 4 6
229 261 261 260 241 174 128 284 253 210 240 247 148 283 274 266 240 246 245 235 230 219 203 208 207 175 177 196 198 213 214 209 199 185 181 190 202 185 92 71 15 2 4 0
228 250 267 259 231 134 193 258 276 203 224 195 201 226 262 289 271 255 251 242 220 205 213 219 193 170 190 203 217 218 199 187 185 184 187 188 174 150 131 96 48 15 360 349
196 223 254 231 154 191 223 261 262 240 230 223 236 259 273 276 272 269 262 245 218 215 232 224 186 180 202 221 222 189 175 179 184 185 188 172 161 159 139 125 84 3 351 337
203 223 242 202 212 238 250 261 259 253 255 247 254 262 267 267 266 265 254 245 228 220 234 233 200 191 212 225 189 171 172 182 184 178 180 171 171 172 158 152 160 248 292 306
253 259 259 258 255 261 253 250 260 260 261 254 254 263 267 265 264 261 253 241 228 220 229 239 221 210 219 210 176 171 180 185 180 177 180 179 182 183 177 185 196 223 251 276
255 270 290 275 252 256 263 258 259 260 251 245 249 258 258 260 258 252 248 235 215 217 228 238 230 223 215 194 174 178 183 184 181 183 182 183 191 198 195 202 197 208 226 238
243 242 237 265 274 276 272 269 264 263 266 254 240 251 256 255 252 244 240 228 224 227 231 235 226 227 213 190 179 178 183 186 182 180 183 184 188 215 228 215 229 239 246 255
251 266 263 272 277 270 265 268 266 257 255 259 255 245 246 249 247 239 238 230 227 229 230 226 221 225 212 189 180 183 187 184 179 182 184 184 186 191 210 240 241 251 270 288
255 267 273 269 271 273 267 265 265 263 256 250 251 249 245 248 250 243 240 235 232 232 229 219 217 225 208 186 181 185 183 187 183 184 184 185 188 192 193 196 221 262 276 286
254 243 254 271 278 278 273 271 271 269 265 260 249 245 241 242 247 248 246 235 225 226 226 217 220 224 194 181 182 182 180 182 180 178 180 183 184 185 190 200 211 228 262 284
269 264 262 265 269 272 272 266 264 267 262 257 253 248 242 241 249 254 244 214 210 227 227 220 223 213 185 179 179 180 185 188 179 175 176 179 182 187 193 201 211 219 232 251
273 277 271 271 271 269 263 257 258 262 261 254 252 250 243 242 250 249 241 225 224 232 228 222 220 197 181 178 176 176 176 184 183 179 182 184 186 192 194 199 211 221 232 248
248 255 261 265 271 273 273 268 262 259 255 253 250 238 229 228 238 245 241 230 233 242 232 217 201 183 178 176 174 171 174 178 179 182 181 184 188 190 191 201 212 221 236 255
269 267 270 268 264 263 267 269 268 264 260 250 238 236 236 236 238 239 219 210 220 238 233 199 189 180 181 185 176 172 173 175 178 182 181 194 193 186 192 202 211 215 222 232
288 285 283 282 277 262 263 269 271 271 263 245 241 244 247 243 230 218 211 225 228 226 205 187 181 181 183 186 179 172 174 177 181 182 181 184 186 191 196 204 210 216 221 228
299 296 293 291 290 282 269 266 264 266 265 244 235 242 248 249 226 206 212 244 243 206 195 191 184 182 181 184 182 173 176 179 182 185 186 189 191 195 201 207 213 219 221 227
296 291 289 287 287 288 285 275 263 263 264 256 249 247 246 248 236 228 228 233 227 200 191 190 186 190 188 182 174 173 179 181 183 183 187 188 191 197 204 209 216 223 225 228
282 281 283 279 274 278 284 274 259 254 253 251 248 242 238 238 223 224 248 231 207 204 196 196 198 196 190 178 172 176 181 185 187 188 190 192 196 199 203 210 215 220 225 232
278 277 275 273 268 270 275 272 260 252 250 252 250 243 236 241 244 233 235 223 211 206 201 203 201 198 188 174 174 179 184 187 187 187 188 190 194 197 201 206 214 220 224 231
272 271 271 270 267 264 264 270 272 264 256 256 255 248 235 225 233 237 216 214 214 208 204 208 205 199 185 173 179 183 186 190 187 183 187 190 194 198 204 208 213 219 224 230
265 264 261 254 253 258 259 255 256 258 252 259 262 249 236 229 228 226 217 212 211 206 201 199 196 193 179 179 184 185 187 195 201 193 188 192 197 199 205 211 217 221 226 232
260 259 260 264 260 248 243 241 246 251 243 241 255 249 232 224 218 214 209 204 202 200 194 190 187 183 179 181 183 184 184 185 185 184 185 190 195 202 207 211 215 220 224 231